Stations météo

Publicité
Kasteli, Grèce (16760): Température de l'air & dewpoint: 15.01.2018 05:00:00 - 21.01.2018 05:00:00 (EET)Kasteli, Grèce (16760): Vitesse du vent: 15.01.2018 05:00:00 - 21.01.2018 05:00:00 (EET)Kasteli, Grèce (16760): Direction du vent: 15.01.2018 05:00:00 - 21.01.2018 05:00:00 (EET)Kasteli, Grèce (16760): reduced air pressure: 15.01.2018 05:00:00 - 21.01.2018 05:00:00 (EET)Kasteli, Grèce (16760): visibility: 15.01.2018 05:00:00 - 21.01.2018 05:00:00 (EET)
Date & Time tt [°C] td [°C] ff [km/h] ff [knt] dd ppp [hPa] vv [km]
21.01.2018 05:00:00 - - - - - - -
21.01.2018 04:00:00 - - - - - - -
21.01.2018 03:00:00 - - - - - - -
21.01.2018 02:00:00 11,8 8,5 28 15 S 1015,3 10
21.01.2018 01:00:00 - - - - - - -
21.01.2018 00:00:00 - - - - - - -
20.01.2018 23:00:00 11,5 9,1 26 14 S 1016,9 -
20.01.2018 22:00:00 - - - - - - -
20.01.2018 21:00:00 - - - - - - -
20.01.2018 20:00:00 11,6 9,1 22 12 S 1017,6 10
20.01.2018 19:00:00 - - - - - - -
20.01.2018 18:00:00 - - - - - - -
20.01.2018 17:00:00 12,6 8,3 24 13 S 1017,7 10
20.01.2018 16:00:00 - - - - - - -
20.01.2018 15:00:00 - - - - - - -
20.01.2018 14:00:00 13,6 7,9 28 15 S 1017,6 10
20.01.2018 13:00:00 - - - - - - -
20.01.2018 12:00:00 - - - - - - -
20.01.2018 11:00:00 13,8 7,5 28 15 S 1019,7 10
20.01.2018 10:00:00 - - - - - - -
20.01.2018 09:00:00 - - - - - - -
20.01.2018 08:00:00 11,6 8,1 18 10 S 1020,2 10
20.01.2018 07:00:00 - - - - - - -
20.01.2018 06:00:00 - - - - - - -
20.01.2018 05:00:00 10,1 7,8 13 7 S 1019,8 -
20.01.2018 04:00:00 - - - - - - -
20.01.2018 03:00:00 - - - - - - -
20.01.2018 02:00:00 8,6 6,3 5 3 N 1020,4 10
20.01.2018 01:00:00 - - - - - - -
20.01.2018 00:00:00 - - - - - - -
19.01.2018 23:00:00 9,5 6,1 11 6 S 1020,0 -
19.01.2018 22:00:00 - - - - - - -
19.01.2018 21:00:00 - - - - - - -
19.01.2018 20:00:00 8,2 4,9 5 3 N 1020,5 10
19.01.2018 19:00:00 - - - - - - -
19.01.2018 18:00:00 - - - - - - -
19.01.2018 17:00:00 11,6 6,6 9 5 NE 1018,9 10
19.01.2018 16:00:00 - - - - - - -
19.01.2018 15:00:00 - - - - - - -
19.01.2018 14:00:00 13,0 -1,5 13 7 NNE 1018,6 10
19.01.2018 13:00:00 - - - - - - -
19.01.2018 12:00:00 - - - - - - -
19.01.2018 11:00:00 11,2 1,2 13 7 N 1020,4 10
19.01.2018 10:00:00 - - - - - - -
19.01.2018 09:00:00 - - - - - - -
19.01.2018 08:00:00 6,8 0,8 11 6 NE 1019,8 10
19.01.2018 07:00:00 - - - - - - -
19.01.2018 06:00:00 - - - - - - -
19.01.2018 05:00:00 6,5 -0,7 9 5 N 1018,6 -
19.01.2018 04:00:00 - - - - - - -
19.01.2018 03:00:00 - - - - - - -
19.01.2018 02:00:00 7,2 -0,9 21 11 N 1018,2 10
19.01.2018 01:00:00 - - - - - - -
19.01.2018 00:00:00 - - - - - - -
18.01.2018 23:00:00 8,0 -1,2 26 14 N 1017,2 -
18.01.2018 22:00:00 - - - - - - -
18.01.2018 21:00:00 - - - - - - -
18.01.2018 20:00:00 8,2 -2,5 39 21 NNW 1015,3 10
18.01.2018 19:00:00 - - - - - - -
18.01.2018 18:00:00 - - - - - - -
18.01.2018 17:00:00 8,8 -0,7 34 18 NNW 1011,6 10
18.01.2018 16:00:00 - - - - - - -
18.01.2018 15:00:00 - - - - - - -
18.01.2018 14:00:00 8,4 4,8 35 19 NNW 1008,8 10
18.01.2018 13:00:00 - - - - - - -
18.01.2018 12:00:00 - - - - - - -
18.01.2018 11:00:00 12,0 4,3 28 15 WNW 1008,2 10
18.01.2018 10:00:00 - - - - - - -
18.01.2018 09:00:00 - - - - - - -
18.01.2018 08:00:00 11,6 7,3 18 10 WNW 1006,5 10
18.01.2018 07:00:00 - - - - - - -
18.01.2018 06:00:00 - - - - - - -
18.01.2018 05:00:00 12,4 10,6 8 4 N 1005,3 -
18.01.2018 04:00:00 - - - - - - -
18.01.2018 03:00:00 - - - - - - -
18.01.2018 02:00:00 13,2 10,5 29 16 SSW 1006,4 10
18.01.2018 01:00:00 - - - - - - -
18.01.2018 00:00:00 - - - - - - -
17.01.2018 23:00:00 12,9 9,8 37 20 S 1007,9 -
17.01.2018 22:00:00 - - - - - - -
17.01.2018 21:00:00 - - - - - - -
17.01.2018 20:00:00 12,8 10,5 26 14 S 1010,2 10
17.01.2018 19:00:00 - - - - - - -
17.01.2018 18:00:00 - - - - - - -
17.01.2018 17:00:00 13,2 10,9 22 12 SSW 1011,2 10
17.01.2018 16:00:00 - - - - - - -
17.01.2018 15:00:00 - - - - - - -
17.01.2018 14:00:00 14,8 11,1 24 13 S 1012,0 10
17.01.2018 13:00:00 - - - - - - -
17.01.2018 12:00:00 - - - - - - -
17.01.2018 11:00:00 13,4 10,4 22 12 S 1015,1 10
17.01.2018 10:00:00 - - - - - - -
17.01.2018 09:00:00 - - - - - - -
17.01.2018 08:00:00 7,2 6,6 9 5 SSE 1016,8 10
17.01.2018 07:00:00 - - - - - - -
17.01.2018 06:00:00 - - - - - - -
17.01.2018 05:00:00 5,9 5,4 2 1 N 1017,3 -
17.01.2018 04:00:00 - - - - - - -
17.01.2018 03:00:00 - - - - - - -
17.01.2018 02:00:00 10,0 6,5 2 1 N 1017,8 -
17.01.2018 01:00:00 - - - - - - -
17.01.2018 00:00:00 - - - - - - -
16.01.2018 23:00:00 8,4 6,7 4 2 N 1019,9 -
16.01.2018 22:00:00 - - - - - - -
16.01.2018 21:00:00 - - - - - - -
16.01.2018 20:00:00 10,6 6,5 5 3 N 1020,2 10
16.01.2018 19:00:00 - - - - - - -
16.01.2018 18:00:00 - - - - - - -
16.01.2018 17:00:00 12,8 7,5 18 10 SSW 1019,9 10
16.01.2018 16:00:00 - - - - - - -
16.01.2018 15:00:00 - - - - - - -
16.01.2018 14:00:00 15,2 8,9 24 13 SSW 1020,5 10
16.01.2018 13:00:00 - - - - - - -
16.01.2018 12:00:00 - - - - - - -
16.01.2018 11:00:00 13,0 9,6 18 10 S 1023,8 10
16.01.2018 10:00:00 - - - - - - -
16.01.2018 09:00:00 - - - - - - -
16.01.2018 08:00:00 11,0 8,2 13 7 S 1024,7 10
16.01.2018 07:00:00 - - - - - - -
16.01.2018 06:00:00 - - - - - - -
16.01.2018 05:00:00 10,3 7,7 13 7 SSE 1025,3 -
16.01.2018 04:00:00 - - - - - - -
16.01.2018 03:00:00 - - - - - - -
16.01.2018 02:00:00 9,0 6,6 0 0 N 1026,6 10
16.01.2018 01:00:00 - - - - - - -
16.01.2018 00:00:00 - - - - - - -
15.01.2018 23:00:00 9,3 7,0 11 6 S 1027,6 -
15.01.2018 22:00:00 - - - - - - -
15.01.2018 21:00:00 - - - - - - -
15.01.2018 20:00:00 5,8 5,3 0 0 N 1028,5 10
15.01.2018 19:00:00 - - - - - - -
15.01.2018 18:00:00 - - - - - - -
15.01.2018 17:00:00 10,4 6,6 8 4 NE 1027,5 10
15.01.2018 16:00:00 - - - - - - -
15.01.2018 15:00:00 - - - - - - -
15.01.2018 14:00:00 11,8 6,4 9 5 NNW 1026,8 10
15.01.2018 13:00:00 - - - - - - -
15.01.2018 12:00:00 - - - - - - -
15.01.2018 11:00:00 10,2 6,3 16 9 NNE 1028,9 10
15.01.2018 10:00:00 - - - - - - -
15.01.2018 09:00:00 - - - - - - -
15.01.2018 08:00:00 8,4 5,6 11 6 N 1028,0 10
15.01.2018 07:00:00 - - - - - - -
15.01.2018 06:00:00 - - - - - - -
15.01.2018 05:00:00 8,3 5,5 9 5 N 1027,3 -

tt = Température de l'air
td = dewpoint
ff = Vitesse du vent
dd = Direction du vent
ppp = reduced air pressure
vv = visibility

stations d'obs. à proximité